DW3263 Weather Reports


Display with metric or nautical units.
time (UTC)temp
F
wind
direction
speed
MPH
gust
MPH
rain 1hr
in
rain 24hr
in
rain mn
in
humidity
%
barometer
mb
20200328122634 43 113 9.0 16.0 0.00 0.00 0.00 94 1014.5
20200328121634 44 113 7.0 10.0 0.00 0.00 0.00 93 1015.4
20200328120633 44 68 1.0 4.0 0.00 0.00 0.00 92 1016.6
20200328115631 44 68 1.0 4.0 0.00 0.00 0.00 91 1016.6
20200328114633 44 113 4.0 7.0 0.00 0.00 0.00 90 1016.5
20200328113517 45 113 4.0 7.0 0.00 0.00 0.00 87 1015.1
20200328112634 46 113 1.0 4.0 0.00 0.00 0.00 83 1015.5
20200328111633 46 113 2.0 7.0 0.00 0.00 0.00 82 1014.5
20200328110631 46 113 3.0 8.0 0.00 0.00 0.00 82 1013.9
20200328105633 46 113 3.0 8.0 0.00 0.00 0.00 83 1013.6
20200328104519 47 90 4.0 8.0 0.00 0.00 0.00 82 1013.7
20200328103633 47 90 5.0 8.0 0.00 0.00 0.00 81 1014.1
20200328102518 47 90 3.0 7.0 0.00 0.00 0.00 82 1014.4
20200328101634 46 113 2.0 8.0 0.00 0.00 0.00 85 1014.2
20200328100633 46 113 7.0 10.0 0.00 0.00 0.00 85 1014.1
20200328095631 47 113 4.0 7.0 0.00 0.00 0.00 84 1014.2
20200328094634 48 113 5.0 9.0 0.00 0.00 0.00 78 1014.4
20200328093519 49 90 6.0 9.0 0.00 0.00 0.00 74 1014.7
20200328092634 48 113 2.0 5.0 0.00 0.00 0.00 79 1015.0
20200328091517 47 113 4.0 8.0 0.00 0.00 0.00 83 1014.4
20200328090634 47 113 6.0 11.0 0.00 0.00 0.00 83 1014.2
20200328085633 48 90 6.0 9.0 0.00 0.00 0.00 83 1014.4
20200328084632 48 90 7.0 9.0 0.00 0.00 0.00 83 1014.4
20200328083631 48 68 4.0 7.0 0.00 0.00 0.00 83 1014.9
20200328082520 47 90 2.0 7.0 0.00 0.00 0.00 86 1014.6
20200328081636 48 90 4.0 7.0 0.00 0.00 0.00 87 1014.3
20200328080518 48 90 3.0 7.0 0.00 0.00 0.00 85 1014.8
20200328075634 49 90 3.0 5.0 0.00 0.00 0.00 82 1014.8
20200328074632 49 90 1.0 6.0 0.00 0.00 0.00 81 1014.9
20200328073634 49 90 2.0 3.0 0.00 0.00 0.00 82 1015.1
20200328072519 51 90 1.0 3.0 0.00 0.00 0.00 76 1015.0
20200328071632 51 90 2.0 7.0 0.00 0.00 0.00 73 1014.7
20200328070634 52 90 3.0 6.0 0.00 0.00 0.00 70 1014.6
20200328065633 53 90 5.0 7.0 0.00 0.00 0.00 64 1014.3
20200328064632 52 90 4.0 8.0 0.00 0.00 0.00 68 1014.2
20200328063632 52 90 4.0 7.0 0.00 0.00 0.00 72 1014.0
20200328062634 53 90 3.0 6.0 0.00 0.00 0.00 72 1014.2
20200328061632 53 90 2.0 5.0 0.00 0.00 0.00 73 1014.2
20200328060632 53 68 2.0 5.0 0.00 0.00 0.00 71 1014.3
20200328055518 52 90 2.0 6.0 0.00 0.00 0.00 79 1014.2
20200328054634 51 113 5.0 9.0 0.00 0.00 0.00 85 1014.4
20200328053632 49 0.0 0.0 0.00 0.00 0.00 87 1014.6
20200328052632 50 23 1.0 2.0 0.00 0.00 0.00 86 1014.8
20200328051634 49 0.0 3.0 0.00 0.00 0.00 89 1014.7
20200328050632 49 0.0 2.0 0.00 0.00 0.00 88 1014.6
20200328045632 50 0.0 0.0 0.00 0.00 0.00 86 1014.9
20200328044518 50 23 1.0 3.0 0.00 0.00 0.00 86 1015.0
20200328043518 50 0.0 0.0 0.00 0.00 0.00 88 1015.0
20200328042632 49 0.0 0.0 0.00 0.00 0.00 89 1014.9
20200328041632 49 0.0 0.0 0.00 0.00 0.00 89 1014.9
20200328040634 49 0.0 0.0 0.00 0.00 0.00 89 1015.0
20200328035633 49 0.0 0.0 0.00 0.00 0.00 88 1015.2
20200328034633 49 0.0 0.0 0.00 0.00 0.00 88 1015.2
20200328033633 49 0.0 0.0 0.00 0.00 0.00 87 1015.3
20200328032633 49 0.0 0.0 0.00 0.00 0.00 86 1015.2
20200328031633 49 0.0 0.0 0.00 0.00 0.00 85 1014.8
20200328030633 50 0.0 0.0 0.00 0.00 0.00 85 1014.9
20200328025519 49 0.0 0.0 0.00 0.00 0.00 86 1014.7
20200328024519 49 0.0 0.0 0.00 0.00 0.00 84 1014.5
20200328023634 51 0.0 0.0 0.00 0.00 0.00 83 1014.5
20200328022633 51 0.0 0.0 0.00 0.00 0.00 82 1014.5
20200328021633 51 0.0 0.0 0.00 0.00 0.00 82 1014.5
20200328020633 51 0.0 0.0 0.00 0.00 0.00 83 1014.5
20200328015633 51 0.0 0.0 0.00 0.00 0.00 82 1014.5
20200328014519 51 0.0 1.0 0.00 0.00 0.00 84 1014.3
20200328013634 52 0.0 2.0 0.00 0.00 0.00 81 1014.4
20200328012633 54 0.0 2.0 0.00 0.00 0.00 78 1014.2
20200328011633 53 23 2.0 4.0 0.00 0.00 0.00 79 1013.8
20200328010519 53 0.0 0.0 0.00 0.00 0.00 79 1013.8
20200328005633 55 0.0 0.0 0.00 0.00 0.00 76 1013.9
20200328004633 54 0.0 1.0 0.00 0.00 0.00 76 1013.9
20200328003519 55 23 1.0 2.0 0.00 0.00 0.00 75 1013.7
20200328002634 55 0.0 0.0 0.00 0.00 0.00 75 1013.3
20200328001633 55 0.0 0.0 0.00 0.00 0.00 74 1013.2
20200328000633 56 0.0 0.0 0.00 0.00 0.00 72 1013.1
20200327235633 57 0.0 0.0 0.00 0.00 0.00 69 1013.0
20200327234633 58 0.0 1.0 0.00 0.00 0.00 68 1012.9
20200327233633 58 0.0 0.0 0.00 0.00 0.00 67 1012.7
20200327232634 59 0.0 0.0 0.00 0.00 0.00 65 1012.5
20200327231633 61 0.0 0.0 0.00 0.00 0.00 63 1012.3
20200327230634 61 0.0 3.0 0.00 0.00 0.00 61 1012.3
20200327225634 62 23 1.0 4.0 0.00 0.00 0.00 61 1012.2
20200327224633 62 23 2.0 6.0 0.00 0.00 0.00 60 1012.2
20200327223633 63 23 1.0 4.0 0.00 0.00 0.00 60 1011.9
20200327222633 63 0.0 1.0 0.00 0.00 0.00 62 1011.8
20200327221631 63 338 1.0 5.0 0.00 0.00 0.00 61 1011.5
20200327220633 63 23 3.0 8.0 0.00 0.00 0.00 61 1011.4
20200327215634 62 0 4.0 9.0 0.00 0.00 0.00 61 1011.4
20200327214633 63 338 3.0 11.0 0.00 0.00 0.00 62 1011.4
20200327213632 63 68 1.0 7.0 0.00 0.00 0.00 63 1011.5
20200327212634 63 338 2.0 13.0 0.00 0.00 0.00 63 1011.5
20200327211633 63 338 5.0 12.0 0.00 0.00 0.00 62 1011.5
20200327210632 63 338 4.0 7.0 0.00 0.00 0.00 62 1011.3
20200327205519 63 90 3.0 10.0 0.00 0.00 0.00 62 1011.2
20200327204634 63 45 3.0 9.0 0.00 0.00 0.00 65 1011.2
20200327203634 62 0 5.0 9.0 0.00 0.00 0.00 65 1010.9
20200327202634 62 338 5.0 10.0 0.00 0.00 0.00 64 1011.1
20200327201634 62 338 4.0 11.0 0.00 0.00 0.00 66 1011.0
20200327200634 62 45 5.0 9.0 0.00 0.00 0.00 65 1011.0
20200327195633 63 23 2.0 7.0 0.00 0.00 0.00 67 1011.0
20200327194631 62 23 3.0 11.0 0.00 0.00 0.00 67 1011.1
20200327193633 62 0 3.0 8.0 0.00 0.00 0.00 67 1011.1
20200327192632 61 90 2.0 8.0 0.00 0.00 0.00 69 1011.1
20200327191634 61 68 4.0 9.0 0.00 0.00 0.00 68 1011.3
20200327190634 60 338 5.0 11.0 0.00 0.00 0.00 68 1011.2
20200327185519 59 338 5.0 10.0 0.00 0.00 0.00 71 1011.3
20200327184520 59 45 3.0 7.0 0.00 0.00 0.00 71 1011.6
20200327183634 59 338 4.0 11.0 0.00 0.00 0.00 71 1011.5
20200327182634 59 0 5.0 12.0 0.00 0.00 0.00 73 1011.5
20200327181632 58 0 3.0 7.0 0.00 0.00 0.00 74 1011.4
20200327180633 58 23 1.0 6.0 0.00 0.00 0.00 77 1011.3
20200327175633 57 68 3.0 7.0 0.00 0.00 0.00 77 1011.3
20200327174631 57 23 3.0 7.0 0.00 0.00 0.00 77 1011.5
20200327173520 56 68 2.0 7.0 0.00 0.00 0.00 77 1011.5
20200327172634 56 90 2.0 8.0 0.00 0.00 0.00 79 1011.4
20200327171634 56 23 3.0 7.0 0.00 0.00 0.00 79 1011.3
20200327170632 56 68 5.0 9.0 0.00 0.00 0.00 78 1011.1
20200327165634 56 23 4.0 9.0 0.00 0.00 0.00 77 1011.3
20200327164634 57 45 3.0 8.0 0.00 0.00 0.00 76 1011.2
20200327163632 58 68 4.0 10.0 0.00 0.00 0.00 76 1010.7
20200327162632 58 68 5.0 10.0 0.00 0.00 0.00 76 1010.8
20200327161634 58 23 4.0 10.0 0.00 0.00 0.00 77 1010.8
20200327160534 58 0 3.0 8.0 0.00 0.00 0.00 78 1011.1
20200327155632 57 23 3.0 9.0 0.00 0.00 0.00 78 1011.2
20200327154632 57 23 3.0 9.0 0.00 0.00 0.00 78 1011.1
20200327153632 56 68 3.0 7.0 0.00 0.00 0.00 79 1011.2
20200327152520 57 23 4.0 8.0 0.00 0.00 0.00 77 1011.1
20200327151631 57 0 3.0 10.0 0.00 0.00 0.00 79 1010.9
20200327150518 56 90 2.0 7.0 0.00 0.00 0.00 80 1010.8
20200327145632 56 45 4.0 12.0 0.00 0.00 0.00 79 1010.8
20200327144634 57 0 3.0 9.0 0.00 0.00 0.00 79 1010.7
20200327143632 57 23 4.0 9.0 0.00 0.00 0.00 78 1010.6
20200327142631 57 0 3.0 8.0 0.00 0.00 0.00 79 1010.4
20200327141520 57 0 4.0 10.0 0.00 0.00 0.00 79 1010.1
20200327140634 57 338 4.0 11.0 0.00 0.00 0.00 79 1009.8
20200327135518 56 338 3.0 7.0 0.00 0.00 0.00 80 1009.6
20200327134632 56 315 3.0 6.0 0.00 0.00 0.00 83 1009.5
20200327133634 54 0.0 0.0 0.00 0.00 0.00 87 1009.1
20200327132632 54 0.0 0.0 0.00 0.00 0.00 88 1009.1
20200327131631 53 0.0 2.0 0.00 0.00 0.00 90 1009.2
20200327130520 53 0.0 2.0 0.00 0.00 0.00 90 1009.1
20200327125633 52 0.0 0.0 0.00 0.00 0.00 91 1008.9
20200327124519 51 0.0 0.0 0.00 0.00 0.00 92 1008.7
20200327123632 51 0.0 0.0 0.00 0.00 0.00 93 1009.1